User: anonymous   Login
Location: downtown San Diego
(32.7310°N, 117.1990°W)
Time: 14:02:45
(UTC-07:00)
Language:

Resurs 01 Rocket - Orbit

View from above orbital plane
View from above orbital plane
View from above satellite
View from above satellite

Ground track
Ground track

The orbit data is extracted from the following two-line orbital elements,

1 23343U 94074B   19287.20321003  .00000014  00000-0  93279-5 0  9997
2 23343  98.0386 336.8504 0006010 217.3193 183.9216 14.76793862342139
Epoch (UTC): 14 October 2019 04:52:37
Eccentricity: 0.0006010
inclination: 98.0386°
perigee height: 635 km
apogee height: 643 km
right ascension of ascending node: 336.8504°
argument of perigee: 217.3193°
revolutions per day: 14.76793862
mean anomaly at epoch: 183.9216°
orbit number at epoch: 34213

The dashed part of the orbit path shows where the satellite is in the earth's shadow,  

DLR